| time (UTC) | temp F | wind direction | speed MPH | gust MPH | rain 1hr in | rain 24hr in | rain mn in | humidity % | barometer mb |
| 20260506140819 | 39 | 256 | 0.0 | 0.0 | 0.00 | 0.00 | 0.00 | 79 | 1026.9 |
| 20260506140315 | 39 | 210 | 0.0 | 0.0 | 0.00 | 0.00 | 0.00 | 82 | 1027.1 |
| 20260506135813 | 37 | 206 | 0.0 | 0.0 | 0.00 | 0.00 | 0.00 | 83 | 1027.2 |
| 20260506135308 | 36 | 205 | 0.0 | 0.0 | 0.00 | 0.00 | 0.00 | 84 | 1027.0 |
| 20260506134805 | 35 | 205 | 0.0 | 0.0 | 0.00 | 0.00 | 0.00 | 87 | 1027.0 |
| 20260506134302 | 34 | 187 | 0.0 | 0.0 | 0.00 | 0.00 | 0.00 | 90 | 1027.1 |
| 20260506133759 | 33 | 198 | 0.0 | 0.0 | 0.00 | 0.00 | 0.00 | 92 | 1027.0 |
| 20260506133256 | 32 | 238 | 0.0 | 0.0 | 0.00 | 0.00 | 0.00 | 92 | 1027.0 |
| 20260506132752 | 32 | 238 | 0.0 | 0.0 | 0.00 | 0.00 | 0.00 | 93 | 1027.0 |
| 20260506132250 | 31 | 239 | 0.0 | 0.0 | 0.00 | 0.00 | 0.00 | 93 | 1026.9 |
| 20260506131748 | 31 | 239 | 0.0 | 0.0 | 0.00 | 0.00 | 0.00 | 93 | 1026.9 |
| 20260506131243 | 30 | 239 | 0.0 | 0.0 | 0.00 | 0.00 | 0.00 | 93 | 1027.0 |
| 20260506130740 | 29 | 237 | 0.0 | 0.0 | 0.00 | 0.00 | 0.00 | 93 | 1026.8 |
| 20260506130237 | 29 | 240 | 0.0 | 0.0 | 0.00 | 0.00 | 0.00 | 92 | 1026.9 |
| 20260506125735 | 28 | 261 | 0.0 | 0.0 | 0.00 | 0.00 | 0.00 | 92 | 1027.0 |
| 20260506125233 | 29 | 222 | 0.0 | 0.0 | 0.00 | 0.00 | 0.00 | 92 | 1026.9 |
| 20260506124731 | 29 | 222 | 0.0 | 0.0 | 0.00 | 0.00 | 0.00 | 92 | 1026.6 |
| 20260506124228 | 29 | 217 | 0.0 | 0.0 | 0.00 | 0.00 | 0.00 | 92 | 1026.5 |
| 20260506123726 | 28 | 222 | 0.0 | 0.0 | 0.00 | 0.00 | 0.00 | 92 | 1026.6 |
| 20260506123225 | 28 | 222 | 0.0 | 0.0 | 0.00 | 0.00 | 0.00 | 92 | 1026.5 |
| 20260506122721 | 29 | 222 | 0.0 | 0.0 | 0.00 | 0.00 | 0.00 | 92 | 1026.8 |
| 20260506122218 | 28 | 222 | 0.0 | 0.0 | 0.00 | 0.00 | 0.00 | 92 | 1026.3 |
| 20260506121716 | 29 | 221 | 0.0 | 0.0 | 0.00 | 0.00 | 0.00 | 92 | 1026.4 |
| 20260506121212 | 29 | 212 | 0.0 | 0.0 | 0.00 | 0.00 | 0.00 | 92 | 1026.3 |
| 20260506120710 | 29 | 213 | 0.0 | 0.0 | 0.00 | 0.00 | 0.00 | 92 | 1026.3 |
| 20260506120208 | 29 | 212 | 0.0 | 0.0 | 0.00 | 0.00 | 0.00 | 91 | 1026.4 |
| 20260506115706 | 29 | 213 | 0.0 | 0.0 | 0.00 | 0.00 | 0.00 | 91 | 1026.6 |
| 20260506115203 | 29 | 236 | 0.0 | 0.0 | 0.00 | 0.00 | 0.00 | 91 | 1026.2 |
| 20260506114700 | 28 | 237 | 0.0 | 0.0 | 0.00 | 0.00 | 0.00 | 91 | 1026.3 |
| 20260506114158 | 28 | 238 | 0.0 | 0.0 | 0.00 | 0.00 | 0.00 | 91 | 1026.5 |
| 20260506113657 | 28 | 237 | 0.0 | 0.0 | 0.00 | 0.00 | 0.00 | 90 | 1026.6 |
| 20260506113154 | 29 | 259 | 0.0 | 0.0 | 0.00 | 0.00 | 0.00 | 90 | 1026.6 |
| 20260506112649 | 29 | 279 | 0.0 | 0.0 | 0.00 | 0.00 | 0.00 | 90 | 1026.5 |
| 20260506112148 | 29 | 308 | 1.0 | 1.0 | 0.00 | 0.00 | 0.00 | 90 | 1026.6 |
| 20260506111645 | 29 | 313 | 1.0 | 1.0 | 0.00 | 0.00 | 0.00 | 90 | 1026.4 |
| 20260506111142 | 29 | 312 | 1.0 | 1.0 | 0.00 | 0.00 | 0.00 | 90 | 1026.5 |
| 20260506110639 | 29 | 319 | 0.0 | 0.0 | 0.00 | 0.00 | 0.00 | 90 | 1026.4 |
| 20260506110137 | 30 | 300 | 1.0 | 1.0 | 0.00 | 0.00 | 0.00 | 90 | 1026.5 |
| 20260506105633 | 30 | 267 | 0.0 | 0.0 | 0.00 | 0.00 | 0.00 | 90 | 1026.5 |
| 20260506105130 | 31 | 241 | 0.0 | 0.0 | 0.00 | 0.00 | 0.00 | 90 | 1026.5 |
| 20260506104629 | 30 | 244 | 0.0 | 0.0 | 0.00 | 0.00 | 0.00 | 90 | 1026.2 |
| 20260506104126 | 29 | 330 | 1.0 | 1.0 | 0.00 | 0.00 | 0.00 | 90 | 1026.2 |
| 20260506103623 | 29 | 287 | 0.0 | 0.0 | 0.00 | 0.00 | 0.00 | 90 | 1026.5 |
| 20260506103120 | 30 | 274 | 0.0 | 0.0 | 0.00 | 0.00 | 0.00 | 90 | 1026.3 |
| 20260506102618 | 30 | 229 | 0.0 | 0.0 | 0.00 | 0.00 | 0.00 | 90 | 1026.3 |
| 20260506102115 | 31 | 219 | 0.0 | 0.0 | 0.00 | 0.00 | 0.00 | 89 | 1026.1 |
| 20260506101612 | 30 | 190 | 0.0 | 0.0 | 0.00 | 0.00 | 0.00 | 89 | 1026.3 |
| 20260506101108 | 30 | 209 | 0.0 | 0.0 | 0.00 | 0.00 | 0.00 | 89 | 1026.1 |
| 20260506100607 | 30 | 240 | 0.0 | 0.0 | 0.00 | 0.00 | 0.00 | 89 | 1026.2 |
| 20260506100105 | 31 | 240 | 0.0 | 0.0 | 0.00 | 0.00 | 0.00 | 88 | 1026.1 |
| 20260506095603 | 31 | 241 | 0.0 | 0.0 | 0.00 | 0.00 | 0.00 | 88 | 1026.2 |
| 20260506095059 | 31 | 229 | 0.0 | 0.0 | 0.00 | 0.00 | 0.00 | 88 | 1026.3 |
| 20260506094557 | 32 | 214 | 0.0 | 0.0 | 0.00 | 0.00 | 0.00 | 88 | 1026.3 |
| 20260506094055 | 32 | 214 | 0.0 | 0.0 | 0.00 | 0.00 | 0.00 | 88 | 1026.3 |
| 20260506093553 | 32 | 215 | 0.0 | 0.0 | 0.00 | 0.00 | 0.00 | 87 | 1026.2 |
| 20260506093050 | 32 | 209 | 0.0 | 0.0 | 0.00 | 0.00 | 0.00 | 87 | 1026.3 |
| 20260506092548 | 31 | 201 | 1.0 | 1.0 | 0.00 | 0.00 | 0.00 | 87 | 1026.4 |
| 20260506092045 | 31 | 244 | 1.0 | 1.0 | 0.00 | 0.00 | 0.00 | 86 | 1026.2 |
| 20260506091543 | 32 | 215 | 0.0 | 0.0 | 0.00 | 0.00 | 0.00 | 86 | 1026.4 |
| 20260506091039 | 32 | 199 | 1.0 | 1.0 | 0.00 | 0.00 | 0.00 | 87 | 1026.1 |
| 20260506090537 | 32 | 212 | 0.0 | 0.0 | 0.00 | 0.00 | 0.00 | 86 | 1026.4 |
| 20260506090033 | 32 | 212 | 0.0 | 0.0 | 0.00 | 0.00 | 0.00 | 86 | 1026.4 |
| 20260506085531 | 32 | 225 | 0.0 | 0.0 | 0.00 | 0.00 | 0.00 | 86 | 1026.4 |
| 20260506085027 | 32 | 225 | 0.0 | 0.0 | 0.00 | 0.00 | 0.00 | 86 | 1026.5 |
| 20260506084524 | 31 | 248 | 0.0 | 0.0 | 0.00 | 0.00 | 0.00 | 85 | 1026.3 |
| 20260506084020 | 32 | 248 | 0.0 | 0.0 | 0.00 | 0.00 | 0.00 | 85 | 1026.3 |
| 20260506083517 | 32 | 248 | 0.0 | 0.0 | 0.00 | 0.00 | 0.00 | 84 | 1026.3 |
| 20260506083015 | 32 | 248 | 0.0 | 0.0 | 0.00 | 0.00 | 0.00 | 84 | 1026.2 |
| 20260506082511 | 32 | 248 | 0.0 | 0.0 | 0.00 | 0.00 | 0.00 | 83 | 1026.2 |
| 20260506082007 | 33 | 248 | 0.0 | 0.0 | 0.00 | 0.00 | 0.00 | 84 | 1026.4 |
| 20260506081505 | 34 | 283 | 0.0 | 0.0 | 0.00 | 0.00 | 0.00 | 84 | 1026.4 |
| 20260506081003 | 34 | 243 | 0.0 | 0.0 | 0.00 | 0.00 | 0.00 | 83 | 1026.2 |
| 20260506080500 | 34 | 237 | 0.0 | 0.0 | 0.00 | 0.00 | 0.00 | 83 | 1026.3 |
| 20260506073443 | 35 | 255 | 0.0 | 0.0 | 0.00 | 0.00 | 0.00 | 77 | 1026.6 |
| 20260506072940 | 36 | 239 | 0.0 | 0.0 | 0.00 | 0.00 | 0.00 | 76 | 1026.3 |
| 20260506072437 | 36 | 237 | 0.0 | 0.0 | 0.00 | 0.00 | 0.00 | 78 | 1026.5 |
| 20260506071936 | 36 | 200 | 0.0 | 0.0 | 0.00 | 0.00 | 0.00 | 78 | 1026.5 |
| 20260506071433 | 35 | 225 | 0.0 | 0.0 | 0.00 | 0.00 | 0.00 | 78 | 1026.3 |
| 20260506070930 | 35 | 240 | 0.0 | 0.0 | 0.00 | 0.00 | 0.00 | 79 | 1026.3 |
| 20260506070427 | 36 | 228 | 0.0 | 0.0 | 0.00 | 0.00 | 0.00 | 76 | 1026.4 |
| 20260506062404 | 40 | 242 | 0.0 | 0.0 | 0.00 | 0.00 | 0.00 | 68 | 1026.1 |
| 20260506061900 | 43 | 213 | 0.0 | 0.0 | 0.00 | 0.00 | 0.00 | 65 | 1026.1 |
| 20260506061357 | 43 | 214 | 0.0 | 0.0 | 0.00 | 0.00 | 0.00 | 65 | 1026.0 |
| 20260506060855 | 44 | 205 | 0.0 | 0.0 | 0.00 | 0.00 | 0.00 | 62 | 1026.0 |
| 20260506060353 | 45 | 178 | 0.0 | 0.0 | 0.00 | 0.00 | 0.00 | 60 | 1026.0 |
| 20260506051325 | 43 | 233 | 0.0 | 0.0 | 0.00 | 0.00 | 0.00 | 62 | 1025.7 |
| 20260506050823 | 44 | 190 | 3.0 | 3.0 | 0.00 | 0.00 | 0.00 | 63 | 1025.2 |
| 20260506050320 | 46 | 157 | 1.0 | 1.0 | 0.00 | 0.00 | 0.00 | 56 | 1025.4 |
| 20260506044810 | 46 | 61 | 0.0 | 0.0 | 0.00 | 0.00 | 0.00 | 56 | 1025.7 |
| 20260506044308 | 46 | 259 | 0.0 | 0.0 | 0.00 | 0.00 | 0.00 | 56 | 1025.4 |
| 20260506043804 | 47 | 343 | 2.0 | 2.0 | 0.00 | 0.00 | 0.00 | 55 | 1025.5 |
| 20260506043302 | 47 | 283 | 1.0 | 1.0 | 0.00 | 0.00 | 0.00 | 54 | 1025.8 |
| 20260506042801 | 47 | 324 | 0.0 | 0.0 | 0.00 | 0.00 | 0.00 | 56 | 1025.4 |
| 20260506042259 | 46 | 308 | 0.0 | 0.0 | 0.00 | 0.00 | 0.00 | 55 | 1025.4 |
| 20260506041757 | 47 | 67 | 1.0 | 1.0 | 0.00 | 0.00 | 0.00 | 56 | 1025.5 |
| 20260506041254 | 47 | 184 | 0.0 | 0.0 | 0.00 | 0.00 | 0.00 | 54 | 1025.4 |
| 20260506040751 | 47 | 349 | 2.0 | 2.0 | 0.00 | 0.00 | 0.00 | 55 | 1025.5 |
| 20260506040248 | 49 | 353 | 1.0 | 1.0 | 0.00 | 0.00 | 0.00 | 53 | 1025.3 |
| 20260506035745 | 49 | 334 | 2.0 | 2.0 | 0.00 | 0.00 | 0.00 | 53 | 1025.5 |
| 20260506035242 | 50 | 343 | 1.0 | 2.0 | 0.00 | 0.00 | 0.00 | 52 | 1025.3 |
| 20260506034738 | 50 | 38 | 3.0 | 3.0 | 0.00 | 0.00 | 0.00 | 50 | 1025.2 |
| 20260506034236 | 50 | 230 | 0.0 | 0.0 | 0.00 | 0.00 | 0.00 | 48 | 1025.1 |
| 20260506033733 | 50 | 50 | 4.0 | 6.0 | 0.00 | 0.00 | 0.00 | 50 | 1025.0 |
| 20260506033230 | 49 | 285 | 5.0 | 6.0 | 0.00 | 0.00 | 0.00 | 51 | 1024.9 |
| 20260506032727 | 50 | 209 | 0.0 | 0.0 | 0.00 | 0.00 | 0.00 | 50 | 1024.9 |
| 20260506032223 | 50 | 51 | 5.0 | 7.0 | 0.00 | 0.00 | 0.00 | 50 | 1024.9 |
| 20260506031720 | 51 | 195 | 0.0 | 0.0 | 0.00 | 0.00 | 0.00 | 50 | 1024.7 |
| 20260506031218 | 51 | 251 | 0.0 | 0.0 | 0.00 | 0.00 | 0.00 | 48 | 1024.5 |
| 20260506030716 | 52 | 159 | 0.0 | 1.0 | 0.00 | 0.00 | 0.00 | 48 | 1024.4 |
| 20260506030213 | 52 | 146 | 1.0 | 1.0 | 0.00 | 0.00 | 0.00 | 48 | 1024.3 |
| 20260506025710 | 52 | 128 | 2.0 | 2.0 | 0.00 | 0.00 | 0.00 | 47 | 1024.5 |
| 20260506025206 | 53 | 111 | 2.0 | 3.0 | 0.00 | 0.00 | 0.00 | 47 | 1024.2 |
| 20260506024703 | 53 | 297 | 5.0 | 6.0 | 0.00 | 0.00 | 0.00 | 45 | 1024.3 |
| 20260506024159 | 51 | 305 | 5.0 | 8.0 | 0.00 | 0.00 | 0.00 | 48 | 1024.0 |
| 20260506023656 | 51 | 345 | 4.0 | 5.0 | 0.00 | 0.00 | 0.00 | 49 | 1023.9 |
| 20260506023153 | 50 | 248 | 0.0 | 1.0 | 0.00 | 0.00 | 0.00 | 52 | 1023.8 |
| 20260506022650 | 51 | 332 | 2.0 | 2.0 | 0.00 | 0.00 | 0.00 | 51 | 1023.7 |
| 20260506022148 | 51 | 1 | 2.0 | 2.0 | 0.00 | 0.00 | 0.00 | 51 | 1023.8 |
| 20260506021646 | 51 | 304 | 3.0 | 3.0 | 0.00 | 0.00 | 0.00 | 52 | 1023.2 |
| 20260506021142 | 52 | 291 | 0.0 | 0.0 | 0.00 | 0.00 | 0.00 | 51 | 1023.3 |
| 20260506020639 | 52 | 251 | 0.0 | 0.0 | 0.00 | 0.00 | 0.00 | 51 | 1023.3 |
| 20260506020137 | 53 | 249 | 0.0 | 0.0 | 0.00 | 0.00 | 0.00 | 52 | 1023.2 |
| 20260506015634 | 54 | 224 | 0.0 | 0.0 | 0.00 | 0.00 | 0.00 | 47 | 1023.1 |
| 20260506015131 | 56 | 45 | 2.0 | 3.0 | 0.00 | 0.00 | 0.00 | 44 | 1023.0 |
| 20260506014629 | 56 | 233 | 0.0 | 0.0 | 0.00 | 0.00 | 0.00 | 45 | 1023.1 |
| 20260506014125 | 57 | 67 | 2.0 | 2.0 | 0.00 | 0.00 | 0.00 | 45 | 1022.9 |
| 20260506013623 | 57 | 359 | 3.0 | 3.0 | 0.00 | 0.00 | 0.00 | 42 | 1023.0 |
| 20260506013119 | 58 | 339 | 6.0 | 8.0 | 0.00 | 0.00 | 0.00 | 41 | 1022.7 |
| 20260506012616 | 58 | 21 | 2.0 | 3.0 | 0.00 | 0.00 | 0.00 | 41 | 1022.6 |
| 20260506012112 | 60 | 87 | 1.0 | 2.0 | 0.00 | 0.00 | 0.00 | 41 | 1022.5 |
| 20260506011610 | 60 | 338 | 3.0 | 5.0 | 0.00 | 0.00 | 0.00 | 40 | 1022.6 |
| 20260506011106 | 60 | 331 | 3.0 | 5.0 | 0.00 | 0.00 | 0.00 | 38 | 1022.6 |
| 20260506010600 | 61 | 295 | 9.0 | 15.0 | 0.00 | 0.00 | 0.00 | 30 | 1022.6 |
| 20260506010056 | 60 | 349 | 9.0 | 11.0 | 0.00 | 0.00 | 0.00 | 29 | 1022.3 |
| 20260506005553 | 60 | 326 | 8.0 | 10.0 | 0.00 | 0.00 | 0.00 | 30 | 1022.2 |
| 20260506005049 | 60 | 26 | 9.0 | 10.0 | 0.00 | 0.00 | 0.00 | 29 | 1022.2 |
| 20260506004547 | 60 | 349 | 15.0 | 20.0 | 0.00 | 0.00 | 0.00 | 29 | 1022.2 |
| 20260506004043 | 61 | 336 | 13.0 | 15.0 | 0.00 | 0.00 | 0.00 | 29 | 1022.1 |
| 20260506003540 | 61 | 334 | 11.0 | 13.0 | 0.00 | 0.00 | 0.00 | 30 | 1022.3 |
| 20260506003036 | 61 | 11 | 5.0 | 7.0 | 0.00 | 0.00 | 0.00 | 30 | 1022.1 |
| 20260506002532 | 61 | 359 | 11.0 | 11.0 | 0.00 | 0.00 | 0.00 | 30 | 1022.2 |
| 20260506002028 | 61 | 348 | 11.0 | 13.0 | 0.00 | 0.00 | 0.00 | 30 | 1022.0 |
| 20260506001524 | 61 | 2 | 10.0 | 13.0 | 0.00 | 0.00 | 0.00 | 29 | 1022.0 |
| 20260506001022 | 62 | 353 | 11.0 | 14.0 | 0.00 | 0.00 | 0.00 | 29 | 1022.0 |
| 20260506000519 | 61 | 334 | 15.0 | 16.0 | 0.00 | 0.00 | 0.00 | 28 | 1022.2 |
| 20260506000016 | 61 | 345 | 8.0 | 10.0 | 0.00 | 0.00 | 0.00 | 30 | 1022.0 |
| 20260505235514 | 62 | 21 | 3.0 | 6.0 | 0.00 | 0.00 | 0.00 | 30 | 1022.0 |
| 20260505235011 | 62 | 328 | 15.0 | 18.0 | 0.00 | 0.00 | 0.00 | 28 | 1022.0 |
| 20260505234508 | 62 | 358 | 9.0 | 14.0 | 0.00 | 0.00 | 0.00 | 30 | 1021.6 |
| 20260505234005 | 62 | 334 | 15.0 | 18.0 | 0.00 | 0.00 | 0.00 | 29 | 1021.7 |
| 20260505233502 | 62 | 58 | 12.0 | 15.0 | 0.00 | 0.00 | 0.00 | 27 | 1021.7 |
| 20260505232959 | 62 | 340 | 15.0 | 17.0 | 0.00 | 0.00 | 0.00 | 29 | 1021.8 |
| 20260505232457 | 62 | 316 | 6.0 | 9.0 | 0.00 | 0.00 | 0.00 | 31 | 1022.0 |
| 20260505231954 | 62 | 13 | 11.0 | 16.0 | 0.00 | 0.00 | 0.00 | 28 | 1021.3 |
| 20260505231451 | 63 | 328 | 4.0 | 5.0 | 0.00 | 0.00 | 0.00 | 31 | 1021.8 |
| 20260505230950 | 62 | 4 | 13.0 | 16.0 | 0.00 | 0.00 | 0.00 | 29 | 1021.7 |
| 20260505230447 | 62 | 338 | 11.0 | 15.0 | 0.00 | 0.00 | 0.00 | 30 | 1021.7 |
| 20260505225943 | 63 | 325 | 10.0 | 15.0 | 0.00 | 0.00 | 0.00 | 31 | 1021.6 |
| 20260505225440 | 63 | 340 | 11.0 | 13.0 | 0.00 | 0.00 | 0.00 | 31 | 1021.6 |
| 20260505224936 | 63 | 359 | 14.0 | 17.0 | 0.00 | 0.00 | 0.00 | 30 | 1021.5 |
| 20260505224433 | 63 | 327 | 12.0 | 14.0 | 0.00 | 0.00 | 0.00 | 32 | 1021.5 |
| 20260505223930 | 63 | 320 | 10.0 | 15.0 | 0.00 | 0.00 | 0.00 | 34 | 1021.8 |
| 20260505223427 | 63 | 342 | 10.0 | 13.0 | 0.00 | 0.00 | 0.00 | 32 | 1021.7 |
| 20260505222924 | 62 | 3 | 7.0 | 9.0 | 0.00 | 0.00 | 0.00 | 31 | 1021.7 |
| 20260505222420 | 62 | 2 | 2.0 | 3.0 | 0.00 | 0.00 | 0.00 | 36 | 1021.7 |
| 20260505221916 | 62 | 327 | 10.0 | 13.0 | 0.00 | 0.00 | 0.00 | 33 | 1021.6 |
| 20260505221414 | 62 | 333 | 13.0 | 15.0 | 0.00 | 0.00 | 0.00 | 33 | 1021.7 |
| 20260505220910 | 62 | 341 | 7.0 | 10.0 | 0.00 | 0.00 | 0.00 | 32 | 1021.9 |
| 20260505220407 | 63 | 347 | 13.0 | 15.0 | 0.00 | 0.00 | 0.00 | 33 | 1021.6 |
| 20260505215905 | 64 | 6 | 4.0 | 7.0 | 0.00 | 0.00 | 0.00 | 34 | 1021.5 |
| 20260505215403 | 64 | 46 | 9.0 | 11.0 | 0.00 | 0.00 | 0.00 | 35 | 1021.6 |
| 20260505214901 | 63 | 352 | 15.0 | 17.0 | 0.00 | 0.00 | 0.00 | 34 | 1021.7 |
| 20260505214358 | 64 | 338 | 18.0 | 21.0 | 0.00 | 0.00 | 0.00 | 32 | 1021.6 |
| 20260505213855 | 64 | 344 | 16.0 | 20.0 | 0.00 | 0.00 | 0.00 | 33 | 1021.7 |
| 20260505213353 | 63 | 346 | 11.0 | 14.0 | 0.00 | 0.00 | 0.00 | 31 | 1021.7 |
| 20260505212849 | 64 | 344 | 10.0 | 14.0 | 0.00 | 0.00 | 0.00 | 32 | 1021.9 |
| 20260505212346 | 64 | 316 | 9.0 | 10.0 | 0.00 | 0.00 | 0.00 | 33 | 1021.6 |
| 20260505211842 | 63 | 347 | 5.0 | 7.0 | 0.00 | 0.00 | 0.00 | 34 | 1021.7 |
| 20260505211340 | 63 | 352 | 11.0 | 15.0 | 0.00 | 0.00 | 0.00 | 31 | 1021.6 |
| 20260505210836 | 64 | 339 | 6.0 | 9.0 | 0.00 | 0.00 | 0.00 | 33 | 1021.8 |
| 20260505210333 | 64 | 339 | 9.0 | 11.0 | 0.00 | 0.00 | 0.00 | 32 | 1021.9 |
| 20260505205830 | 64 | 353 | 5.0 | 8.0 | 0.00 | 0.00 | 0.00 | 32 | 1021.8 |
| 20260505205328 | 65 | 340 | 12.0 | 14.0 | 0.00 | 0.00 | 0.00 | 31 | 1021.9 |
| 20260505204825 | 64 | 102 | 3.0 | 5.0 | 0.00 | 0.00 | 0.00 | 35 | 1021.9 |
| 20260505204323 | 62 | 323 | 7.0 | 9.0 | 0.00 | 0.00 | 0.00 | 33 | 1021.9 |
| 20260505203820 | 62 | 350 | 8.0 | 13.0 | 0.00 | 0.00 | 0.00 | 35 | 1021.9 |
| 20260505203316 | 62 | 320 | 5.0 | 8.0 | 0.00 | 0.00 | 0.00 | 32 | 1022.1 |
| 20260505202812 | 63 | 6 | 9.0 | 10.0 | 0.00 | 0.00 | 0.00 | 35 | 1021.9 |
| 20260505202309 | 62 | 335 | 7.0 | 8.0 | 0.00 | 0.00 | 0.00 | 32 | 1022.0 |
| 20260505201805 | 62 | 339 | 10.0 | 11.0 | 0.00 | 0.00 | 0.00 | 31 | 1022.1 |
| 20260505201303 | 64 | 337 | 6.0 | 8.0 | 0.00 | 0.00 | 0.00 | 33 | 1021.8 |
| 20260505200801 | 62 | 27 | 9.0 | 13.0 | 0.00 | 0.00 | 0.00 | 33 | 1022.2 |
| 20260505200258 | 63 | 346 | 8.0 | 10.0 | 0.00 | 0.00 | 0.00 | 32 | 1021.9 |
| 20260505195753 | 62 | 32 | 5.0 | 8.0 | 0.00 | 0.00 | 0.00 | 32 | 1022.1 |
| 20260505195251 | 61 | 339 | 9.0 | 10.0 | 0.00 | 0.00 | 0.00 | 33 | 1022.3 |
| 20260505194748 | 62 | 329 | 14.0 | 16.0 | 0.00 | 0.00 | 0.00 | 31 | 1021.9 |
| 20260505194244 | 62 | 341 | 9.0 | 9.0 | 0.00 | 0.00 | 0.00 | 31 | 1022.3 |
| 20260505193740 | 62 | 330 | 8.0 | 10.0 | 0.00 | 0.00 | 0.00 | 33 | 1022.1 |
| 20260505193238 | 62 | 21 | 4.0 | 7.0 | 0.00 | 0.00 | 0.00 | 32 | 1022.3 |
| 20260505192736 | 62 | 333 | 13.0 | 15.0 | 0.00 | 0.00 | 0.00 | 30 | 1022.1 |
| 20260505192233 | 61 | 335 | 10.0 | 13.0 | 0.00 | 0.00 | 0.00 | 31 | 1022.5 |
| 20260505191731 | 61 | 336 | 11.0 | 16.0 | 0.00 | 0.00 | 0.00 | 34 | 1022.3 |
| 20260505191230 | 61 | 337 | 8.0 | 10.0 | 0.00 | 0.00 | 0.00 | 31 | 1022.6 |
| 20260505190725 | 61 | 340 | 9.0 | 14.0 | 0.00 | 0.00 | 0.00 | 32 | 1022.6 |
| 20260505190225 | 62 | 332 | 11.0 | 14.0 | 0.00 | 0.00 | 0.00 | 32 | 1022.3 |
| 20260505185722 | 61 | 6 | 7.0 | 8.0 | 0.00 | 0.00 | 0.00 | 32 | 1022.5 |
| 20260505185219 | 60 | 342 | 8.0 | 10.0 | 0.00 | 0.00 | 0.00 | 28 | 1022.1 |
| 20260505184715 | 61 | 331 | 10.0 | 13.0 | 0.00 | 0.00 | 0.00 | 31 | 1022.7 |
| 20260505184212 | 60 | 348 | 12.0 | 15.0 | 0.00 | 0.00 | 0.00 | 31 | 1022.7 |
| 20260505183709 | 61 | 335 | 3.0 | 3.0 | 0.00 | 0.00 | 0.00 | 31 | 1022.6 |
| 20260505183207 | 61 | 355 | 8.0 | 10.0 | 0.00 | 0.00 | 0.00 | 34 | 1022.7 |
| 20260505182702 | 60 | 334 | 12.0 | 14.0 | 0.00 | 0.00 | 0.00 | 32 | 1022.5 |
| 20260505182200 | 60 | 332 | 9.0 | 10.0 | 0.00 | 0.00 | 0.00 | 34 | 1022.7 |
| 20260505181656 | 60 | 343 | 7.0 | 9.0 | 0.00 | 0.00 | 0.00 | 33 | 1022.8 |
| 20260505181154 | 60 | 327 | 9.0 | 11.0 | 0.00 | 0.00 | 0.00 | 34 | 1022.9 |
| 20260505180650 | 60 | 345 | 7.0 | 8.0 | 0.00 | 0.00 | 0.00 | 38 | 1023.0 |
| 20260505180147 | 60 | 329 | 7.0 | 8.0 | 0.00 | 0.00 | 0.00 | 36 | 1022.8 |
| 20260505175643 | 60 | 321 | 9.0 | 10.0 | 0.00 | 0.00 | 0.00 | 35 | 1023.0 |
| 20260505175139 | 60 | 63 | 2.0 | 2.0 | 0.00 | 0.00 | 0.00 | 40 | 1022.8 |
| 20260505174636 | 60 | 345 | 6.0 | 8.0 | 0.00 | 0.00 | 0.00 | 36 | 1022.9 |
| 20260505174132 | 59 | 348 | 6.0 | 8.0 | 0.00 | 0.00 | 0.00 | 39 | 1022.9 |
| 20260505173629 | 59 | 332 | 5.0 | 6.0 | 0.00 | 0.00 | 0.00 | 36 | 1023.2 |
| 20260505173126 | 59 | 330 | 3.0 | 5.0 | 0.00 | 0.00 | 0.00 | 36 | 1023.0 |
| 20260505172624 | 59 | 320 | 6.0 | 8.0 | 0.00 | 0.00 | 0.00 | 35 | 1023.2 |
| 20260505172120 | 58 | 7 | 4.0 | 5.0 | 0.00 | 0.00 | 0.00 | 36 | 1023.1 |
| 20260505171615 | 58 | 324 | 6.0 | 7.0 | 0.00 | 0.00 | 0.00 | 36 | 1023.3 |
| 20260505171112 | 57 | 314 | 1.0 | 1.0 | 0.00 | 0.00 | 0.00 | 39 | 1023.2 |
| 20260505170609 | 57 | 280 | 5.0 | 6.0 | 0.00 | 0.00 | 0.00 | 37 | 1023.1 |
| 20260505170105 | 57 | 353 | 3.0 | 3.0 | 0.00 | 0.00 | 0.00 | 37 | 1023.2 |
| 20260505165600 | 58 | 0 | 2.0 | 2.0 | 0.00 | 0.00 | 0.00 | 38 | 1023.2 |
| 20260505165056 | 56 | 325 | 1.0 | 3.0 | 0.00 | 0.00 | 0.00 | 40 | 1023.1 |
| 20260505164552 | 56 | 320 | 3.0 | 3.0 | 0.00 | 0.00 | 0.00 | 38 | 1023.4 |
| 20260505164050 | 56 | 320 | 5.0 | 6.0 | 0.00 | 0.00 | 0.00 | 41 | 1023.4 |
| 20260505163549 | 56 | 322 | 4.0 | 6.0 | 0.00 | 0.00 | 0.00 | 41 | 1023.6 |
| 20260505163045 | 56 | 334 | 8.0 | 9.0 | 0.00 | 0.00 | 0.00 | 40 | 1023.6 |
| 20260505162538 | 55 | 347 | 3.0 | 3.0 | 0.00 | 0.00 | 0.00 | 42 | 1023.7 |
| 20260505162035 | 55 | 341 | 6.0 | 8.0 | 0.00 | 0.00 | 0.00 | 45 | 1023.8 |
| 20260505161532 | 55 | 330 | 8.0 | 9.0 | 0.00 | 0.00 | 0.00 | 41 | 1023.6 |
| 20260505161029 | 55 | 332 | 6.0 | 8.0 | 0.00 | 0.00 | 0.00 | 44 | 1023.4 |
| 20260505160527 | 55 | 347 | 6.0 | 7.0 | 0.00 | 0.00 | 0.00 | 44 | 1023.6 |
| 20260505153003 | 52 | 1 | 7.0 | 8.0 | 0.00 | 0.00 | 0.00 | 50 | 1023.8 |
| 20260505152501 | 51 | 12 | 3.0 | 3.0 | 0.00 | 0.00 | 0.00 | 52 | 1024.0 |
| 20260505151956 | 51 | 345 | 7.0 | 8.0 | 0.00 | 0.00 | 0.00 | 53 | 1023.7 |
| 20260505151451 | 50 | 351 | 6.0 | 7.0 | 0.00 | 0.00 | 0.00 | 53 | 1023.9 |
| 20260505150949 | 50 | 346 | 4.0 | 5.0 | 0.00 | 0.00 | 0.00 | 57 | 1023.6 |
| 20260505150445 | 50 | 341 | 4.0 | 7.0 | 0.00 | 0.00 | 0.00 | 55 | 1023.8 |